Weather History for KSLO - January, 2013

Change the Weather History Date:

Sunday, January 27, 2013

  Actual Average Record
Temperature  
Mean Temperature 38 °F -  
Max Temperature 48 °F 37 °F 60 °F (1968)
Min Temperature 28 °F 21 °F -3 °F (1963)
Degree Days  
Heating Degree Days 27    
Moisture  
Dew Point 33 °F    
Average Humidity 88    
Maximum Humidity 100    
Minimum Humidity 69    
Precipitation  
Precipitation 0.01 in - - ()
Sea Level Pressure  
Sea Level Pressure 30.19 in    
Wind  
Wind Speed 7 mph (SE)    
Max Wind Speed 14 mph    
Max Gust Speed 23 mph    
Visibility 6 miles    
Events Rain    
Averages and records for this station are not official NWS values.
T = Trace of Precipitation, MM = Missing Value Source: NWS Daily Summary

Daily Weather History Graph

Daily Weather History Graph

Search for Another Location

Airport or City:

Trip Planner

Search our weather history database for the weather conditions in past years. The results will help you decide how hot, cold, wet, or windy it might be!

Date:

Astronomy

Jan. 27, 2013 Rise Set
Actual Time 7:05 AM CST 5:12 PM CST
Civil Twilight 6:37 AM CST 5:40 PM CST
Nautical Twilight 6:05 AM CST 6:12 PM CST
Astronomical Twilight 5:33 AM CST 6:44 PM CST
Moon 6:05 PM CST (1/27) 6:59 AM CST (1/27)
Length of Visible Light 11h 03m
Length of Day
10h 06m
Full, 100% of the Moon is Illuminated
Jan 27
Full
Feb 3
Last Quarter
Feb 10
New
Feb 17
First Quarter
Feb 25
Full

Hourly Weather History & Observations

Time (CST) Temp. Windchill Dew Point Humidity Pressure Visibility Wind Dir Wind Speed Gust Speed Precip Events Conditions
12:15 AM 29.7 °F 24.7 °F 20.8 °F 70% 30.34 in 10.0 mi East 4.6 mph - N/A   Clear
12:35 AM 29.3 °F 24.3 °F 20.7 °F 70% 30.33 in 10.0 mi East 4.6 mph - N/A   Clear
12:55 AM 29.3 °F 24.3 °F 20.5 °F 70% 30.33 in 10.0 mi East 4.6 mph - N/A   Clear
1:15 AM 29.3 °F 25.6 °F 20.3 °F 69% 30.33 in 10.0 mi ESE 3.5 mph - N/A   Clear
1:35 AM 29.1 °F 24.1 °F 20.3 °F 70% 30.32 in 10.0 mi East 4.6 mph - N/A   Clear
1:55 AM 29.1 °F 25.4 °F 20.3 °F 70% 30.32 in 10.0 mi ESE 3.5 mph - N/A   Clear
2:15 AM 28.9 °F 22.8 °F 20.3 °F 70% 30.32 in 10.0 mi East 5.8 mph - N/A   Clear
2:35 AM 29.1 °F 24.1 °F 20.3 °F 70% 30.33 in 10.0 mi ESE 4.6 mph - N/A   Clear
2:55 AM 28.9 °F 23.9 °F 20.7 °F 71% 30.33 in 10.0 mi East 4.6 mph - N/A   Clear
3:15 AM 29.3 °F 25.6 °F 20.8 °F 71% 30.33 in 10.0 mi ESE 3.5 mph - N/A   Clear
3:35 AM 29.7 °F 26.1 °F 21.0 °F 70% 30.33 in 10.0 mi ESE 3.5 mph - N/A   Clear
3:55 AM 29.3 °F 24.3 °F 21.2 °F 72% 30.31 in 10.0 mi East 4.6 mph - N/A   Clear
4:15 AM 29.7 °F 24.7 °F 21.2 °F 71% 30.31 in 10.0 mi East 4.6 mph - N/A   Clear
4:35 AM 30.0 °F 23.2 °F 21.9 °F 72% 30.31 in 10.0 mi ESE 6.9 mph - N/A   Clear
4:55 AM 30.0 °F 24.1 °F 22.5 °F 73% 30.30 in 10.0 mi SE 5.8 mph - N/A   Clear
5:15 AM 30.2 °F 25.4 °F 23.0 °F 75% 30.30 in 10.0 mi ESE 4.6 mph - N/A   Clear
5:35 AM 30.4 °F 23.6 °F 23.4 °F 75% 30.28 in 10.0 mi ESE 6.9 mph - N/A   Clear
5:55 AM 30.7 °F 24.1 °F 23.9 °F 76% 30.29 in 10.0 mi ESE 6.9 mph - N/A   Clear
6:15 AM 30.9 °F 25.2 °F 24.8 °F 78% 30.29 in 10.0 mi ESE 5.8 mph - N/A   Clear
6:35 AM 31.6 °F 24.4 °F 25.7 °F 79% 30.29 in 7.0 mi ESE 8.1 mph - N/A   Clear
6:55 AM 32.0 °F 24.8 °F 26.2 °F 79% 30.30 in 7.0 mi SE 8.1 mph - N/A   Mostly Cloudy
7:15 AM 32.0 °F 23.6 °F 26.4 °F 80% 30.29 in 7.0 mi SE 10.4 mph - N/A   Overcast
7:35 AM 32.0 °F 24.2 °F 26.6 °F 80% 30.29 in 7.0 mi ESE 9.2 mph - N/A   Overcast
7:55 AM 32.0 °F 24.8 °F 26.6 °F 80% 30.28 in 7.0 mi SE 8.1 mph - N/A   Overcast
8:15 AM 32.2 °F 25.0 °F 27.9 °F 84% 30.28 in 5.0 mi SE 8.1 mph - N/A   Overcast
8:35 AM 32.4 °F 25.3 °F 28.2 °F 85% 30.28 in 5.0 mi SE 8.1 mph - N/A   Overcast
8:55 AM 32.5 °F 27.1 °F 28.8 °F 86% 30.27 in 5.0 mi SE 5.8 mph 17.3 mph N/A   Overcast
9:15 AM 32.9 °F 25.9 °F 29.1 °F 86% 30.28 in 5.0 mi SE 8.1 mph - N/A   Overcast
9:35 AM 33.1 °F 27.7 °F 29.3 °F 86% 30.30 in 5.0 mi SE 5.8 mph - N/A   Overcast
9:55 AM 33.1 °F 26.9 °F 30.0 °F 89% 30.30 in 4.0 mi SE 6.9 mph - N/A   Overcast
10:15 AM 33.1 °F 26.9 °F 30.6 °F 90% 30.30 in 4.0 mi SE 6.9 mph - N/A   Overcast
10:35 AM 33.3 °F 27.1 °F 31.1 °F 92% 30.29 in 3.0 mi ESE 6.9 mph - N/A   Overcast
10:55 AM 33.8 °F 27.0 °F 32.0 °F 93% 30.27 in 2.5 mi ESE 8.1 mph - N/A   Overcast
11:15 AM 34.0 °F 27.2 °F 32.2 °F 93% 30.26 in 3.0 mi ESE 8.1 mph - N/A   Overcast
11:35 AM 34.3 °F 28.4 °F 32.9 °F 94% 30.24 in 2.5 mi ESE 6.9 mph - N/A   Overcast
11:55 AM 34.7 °F 29.6 °F 33.1 °F 94% 30.23 in 2.5 mi ESE 5.8 mph - N/A   Overcast
12:15 PM 34.7 °F 28.8 °F 33.1 °F 94% 30.22 in 2.5 mi SE 6.9 mph - N/A Rain Light Rain
12:35 PM 34.7 °F 28.1 °F 33.8 °F 97% 30.20 in 2.0 mi ESE 8.1 mph - N/A Rain Light Rain
12:55 PM 35.1 °F 28.6 °F 34.0 °F 96% 30.18 in 2.5 mi ESE 8.1 mph - N/A Rain Light Rain
1:15 PM 35.6 °F 28.6 °F 34.2 °F 94% 30.16 in 3.0 mi SE 9.2 mph - N/A   Light Drizzle
1:35 PM 35.8 °F 27.8 °F 34.3 °F 94% 30.14 in 3.0 mi SE 11.5 mph 18.4 mph N/A Rain Rain
1:55 PM 36.0 °F 28.5 °F 34.3 °F 94% 30.14 in 3.0 mi SE 10.4 mph - N/A   Drizzle
2:15 PM 35.8 °F 28.8 °F 34.7 °F 96% 30.13 in 2.5 mi SE 9.2 mph - N/A Rain Light Rain
2:35 PM 36.1 °F 28.7 °F 35.8 °F 99% 30.13 in 1.8 mi SE 10.4 mph - 0.01 in Rain Light Rain
2:55 PM 36.5 °F 28.7 °F 36.5 °F 100% 30.11 in 1.8 mi SE 11.5 mph 17.3 mph 0.01 in   Drizzle
3:15 PM 36.9 °F 29.1 °F 36.9 °F 100% 30.11 in 2.0 mi SE 11.5 mph 17.3 mph N/A   Light Drizzle
3:35 PM 37.4 °F 30.8 °F 37.4 °F 100% 30.11 in 1.8 mi SE 9.2 mph - N/A   Light Drizzle
3:55 PM 37.4 °F 31.4 °F 37.4 °F 100% 30.12 in 1.8 mi SSE 8.1 mph - N/A Rain Light Rain
4:15 PM 37.9 °F 31.5 °F 37.9 °F 100% 30.11 in 1.5 mi SE 9.2 mph - N/A Rain Light Rain
4:35 PM 38.3 °F 32.5 °F 38.3 °F 100% 30.11 in 1.5 mi SSE 8.1 mph - N/A Rain Light Rain
4:55 PM 39.2 °F 34.2 °F 39.2 °F 100% 30.10 in 1.8 mi SSE 6.9 mph - N/A Rain Light Rain
5:15 PM 39.2 °F 33.0 °F 39.2 °F 100% 30.09 in 2.0 mi SSE 9.2 mph - N/A Rain Light Rain
5:35 PM 39.9 °F 34.5 °F 39.9 °F 100% 30.08 in 3.0 mi SSE 8.1 mph - N/A Rain Light Rain
5:55 PM 41.0 °F 33.9 °F 41.0 °F 100% 30.07 in 4.0 mi SSE 12.7 mph 18.4 mph N/A Rain Light Rain
6:15 PM 41.0 °F 35.2 °F 41.0 °F 100% 30.07 in 4.0 mi SSE 9.2 mph - N/A Rain Rain
6:35 PM 41.0 °F 35.2 °F 41.0 °F 100% 30.06 in 4.0 mi SSE 9.2 mph 16.1 mph N/A Rain Rain
6:55 PM 41.0 °F 33.9 °F 41.0 °F 100% 30.05 in 4.0 mi SSE 12.7 mph 18.4 mph N/A Rain Light Rain
7:15 PM 41.5 °F 35.0 °F 41.5 °F 100% 30.03 in 3.0 mi SSE 11.5 mph 17.3 mph N/A   Overcast
7:35 PM 43.0 °F 36.4 °F 43.0 °F 100% 30.03 in 3.0 mi SSE 12.7 mph 20.7 mph N/A   Overcast
7:55 PM 44.6 °F 38.1 °F 44.6 °F 100% 30.03 in 3.0 mi South 13.8 mph 18.4 mph N/A   Overcast
8:15 PM 45.5 °F 40.8 °F 45.5 °F 100% 30.03 in 5.0 mi SSE 9.2 mph 20.7 mph N/A   Overcast
8:35 PM 46.0 °F 41.0 °F 45.1 °F 97% 30.02 in 7.0 mi SSE 10.4 mph - N/A   Scattered Clouds
8:55 PM 46.4 °F 40.7 °F 44.6 °F 93% 30.04 in 7.0 mi South 12.7 mph 19.6 mph N/A   Mostly Cloudy
9:15 PM 46.4 °F 40.4 °F 45.0 °F 95% 30.03 in 7.0 mi South 13.8 mph 23.0 mph N/A   Mostly Cloudy
9:35 PM 47.5 °F - 45.3 °F 92% 30.03 in 10.0 mi South 11.5 mph 19.6 mph N/A   Scattered Clouds
9:55 PM 47.7 °F - 45.5 °F 92% 30.03 in 10.0 mi South 11.5 mph 17.3 mph N/A   Mostly Cloudy
10:15 PM 48.4 °F - 45.9 °F 91% 30.02 in 10.0 mi South 11.5 mph 21.9 mph N/A   Mostly Cloudy
10:35 PM 48.7 °F - 46.4 °F 92% 30.02 in 10.0 mi South 12.7 mph 19.6 mph N/A   Mostly Cloudy
10:55 PM 48.6 °F - 46.4 °F 92% 30.03 in 10.0 mi South 13.8 mph 18.4 mph N/A   Overcast
11:15 PM 48.7 °F - 46.6 °F 92% 30.04 in 10.0 mi South 13.8 mph 18.4 mph N/A Rain Light Rain
11:35 PM 48.2 °F - 47.1 °F 96% 30.04 in 10.0 mi South 13.8 mph 17.3 mph N/A   Overcast
11:55 PM 48.6 °F - 47.3 °F 95% 30.03 in 10.0 mi South 10.4 mph - N/A   Overcast